Regional Weather Roundup
Issued by NWS Burlington, VT

Home | Current Version | Previous Version | Text Only | Print | Product List | Glossary On
Versions: 1 2 3 4 5 6 7 8 9 10 11 12 13 14 15 16 17 18 19 20 21 22 23 24 25 26 27 28 29 30 31 32 33 34 35 36 37 38 39 40 41 42 43 44 45 46 47 48 49 50
000
ASUS41 KBTV 290530
RWRBTV
VERMONT REGIONAL WEATHER ROUNDUP
NATIONAL WEATHER SERVICE BURLINGTON VT
100 AM EDT TUE JUL 29 2014

NOTE: "FAIR" INDICATES FEW OR NO CLOUDS BELOW 12,000 FEET WITH NO
SIGNIFICANT WEATHER AND/OR OBSTRUCTIONS TO VISIBILITY.

* THESE REPORTS ARE NOT UNDER NWS QUALITY CONTROL AND/OR DO NOT
  REPORT WEATHER SUCH AS PRECIPITATION AND FOG.

VTZ001>019-290600-
_____VERMONT_____


CITY           SKY/WX    TMP DP  RH WIND       PRES   REMARKS
BURLINGTON     CLOUDY    60  56  86 NW14      29.66S
MONTPELIER     LGT RAIN  57  55  93 W14G21    29.67R
MORRISVILLE    LGT RAIN  57  54  89 VRB5G17   29.66R
ST. JOHNSBURY*   N/A     62  56  80 MISG      29.58R
LYNDONVILLE*     N/A    N/A N/A N/A MISG        N/A
MIDDLEBURY*    LGT RAIN  58  58 100 NW5       29.67S
RUTLAND*       CLOUDY    57  55  94 NW9       29.68R
SPRINGFIELD    CLOUDY    61  56  83 W7        29.64R
HIGHGATE*      CLOUDY    58  54  86 N6G17     29.66R
NEWPORT*       CLOUDY   N/A N/A N/A W13       29.62R
BENNINGTON     CLOUDY    60  58  92 W9        29.68R
SUTTON*          N/A     57 N/A N/A MISG        N/A
GALLUP MILLS*    N/A     45 N/A N/A MISG        N/A
UNION VILLAGE*   N/A     61 N/A N/A MISG        N/A
MT. MANSFIELD*   N/A     46 N/A N/A NW21G36     N/A

_____LAKE CHAMPLAIN_____


CITY           SKY/WX    TMP DP  RH WIND       PRES   REMARKS
COLCHESTER RF*   N/A     63  57  82 NW16        N/A
DIAMOND ISL*     N/A     61  54  77 NW10        N/A

$$

NYZ007-026>031-035-052-083-290600-
_____NORTHERN NEW YORK_____


CITY           SKY/WX    TMP DP  RH WIND       PRES   REMARKS
PLATTSBURGH    CLOUDY    59  55  87 NW7       29.66F
SARANAC LAKE   CLOUDY    54  52  93 CALM      29.72R
MASSENA        MOCLDY    59  52  77 NW8       29.72F
OGDENSBURG*    CLEAR     55  52  88 N6        29.75R
POTSDAM*       PTCLDY    54  54 100 W3        29.74R
PARISHVILLE*     N/A     57 N/A N/A W2          N/A
WATERTOWN      PTCLDY    59  50  72 W5        29.77S
FT DRUM        MOCLDY    55  55  99 W5        29.76F
ALBANY         CLOUDY    62  58  86 W7        29.70R
GLENS FALLS    CLOUDY    62  55  77 NW5       29.67R

$$
NHZ002-005-011-290600-
_____NEW HAMPSHIRE_____


CITY           SKY/WX    TMP DP  RH WIND       PRES   REMARKS
LEBANON        CLOUDY    63  58  83 NW3       29.62R
KEENE          CLOUDY    63  52  67 N7        29.62R
MT WASHINGTON  LGT RAIN  43  43 100 NW35        N/A  VSB 0
PLYMOUTH       CLOUDY    63  58  84 W10G16    29.56R
WHITEFIELD     CLOUDY    60  57  89 SW3       29.58R

$$

_____REGIONAL QUEBEC LOCATIONS_____


CITY           SKY/WX    TMP DP  RH WIND       PRES   REMARKS
MONTREAL       MOCLDY    59  55  88 NW9       29.66F
QUEBEC CITY    LGT RAIN  59  55  88 NW8       29.52F
SHERBROOKE     LGT RAIN  55  55 100 W12G20    29.57R

_____REGIONAL ONTARIO LOCATIONS_____


CITY           SKY/WX    TMP DP  RH WIND       PRES   REMARKS
OTTAWA         CLEAR     57  50  77 NW8       29.75S

______KEY______
VSB  - VISIBILITY IN MILES
WCI  - WIND CHILL INDEX
HX   - HEAT INDEX
$$
NNNN


USA.gov is the U.S. government's official web portal to all federal, state and local government web resources and services.